FW4074 Weather Reports


time (UTC)temp
F
wind
direction
speed
knots
gust
knots
rain 1hr
in
rain 24hr
in
rain mn
in
humidity
%
barometer
mb
20260506124504 77 138 2.6 7.8 0.00 0.00 0.00 90 1009.3
20260506123003 77 144 3.5 7.8 0.00 0.00 0.00 90 1009.1
20260506121502 77 144 3.5 8.7 0.00 0.00 0.00 90 1009.1
20260506120002 77 137 4.3 7.8 0.00 0.00 0.00 90 1009.0
20260506114502 77 144 4.3 7.8 0.00 0.00 0.00 90 1008.9
20260506113001 77 133 4.3 8.7 0.00 0.00 0.00 90 1008.8
20260506111501 77 129 3.5 8.7 0.00 0.00 0.00 90 1008.8
20260506110001 77 142 5.2 10.4 0.00 0.00 0.00 90 1008.8
20260506104636 77 166 5.2 8.7 0.00 0.00 0.00 90 1008.8
20260506103108 77 157 6.1 9.6 0.00 0.00 0.00 90 1008.8
20260506101559 77 159 6.1 9.6 0.00 0.00 0.00 90 1008.8
20260506100058 77 171 7.0 11.3 0.00 0.00 0.00 91 1008.7
20260506094558 76 139 7.0 13.0 0.00 0.00 0.00 91 1008.5
20260506093057 77 133 6.1 12.2 0.00 0.00 0.00 91 1008.2
20260506091559 77 168 7.8 10.4 0.00 0.00 0.00 90 1008.2
20260506090057 77 132 7.0 12.2 0.00 0.00 0.00 90 1008.1
20260506084555 76 144 7.0 13.0 0.00 0.00 0.00 90 1008.0
20260506083055 76 161 7.8 11.3 0.00 0.00 0.00 90 1008.2
20260506081559 76 152 6.1 10.4 0.00 0.00 0.00 90 1008.3
20260506080106 76 165 8.7 13.9 0.00 0.00 0.00 90 1008.3
20260506073050 76 156 7.8 13.0 0.00 0.00 0.00 90 1009.0
20260506071547 77 144 7.0 12.2 0.00 0.00 0.00 90 1009.2
20260506061545 77 164 8.7 17.4 0.00 0.00 0.00 90 1009.3
20260506044538 77 159 13.0 18.2 0.00 0.00 0.00 89 1009.3
20260506043047 77 155 11.3 16.5 0.00 0.00 0.00 89 1009.4
20260506041538 77 159 13.0 18.2 0.00 0.00 0.00 89 1009.4
20260506040045 77 169 13.0 20.0 0.00 0.00 0.00 89 1009.5
20260506034537 77 166 12.2 17.4 0.00 0.00 0.00 89 1009.2
20260506033035 77 153 13.0 17.4 0.00 0.00 0.00 89 1009.2
20260506031536 77 162 13.0 19.1 0.00 0.00 0.00 89 1009.0
20260506030034 77 168 13.0 16.5 0.00 0.00 0.00 89 1008.7
20260506024542 77 148 9.6 19.1 0.00 0.00 0.00 88 1008.5
20260506023033 77 168 13.0 18.2 0.00 0.00 0.00 89 1008.4
20260506021549 77 172 13.0 19.1 0.00 0.00 0.00 89 1008.2
20260506020032 77 161 12.2 18.2 0.00 0.00 0.00 89 1008.1
20260506014532 77 164 12.2 15.6 0.00 0.00 0.00 89 1007.9
20260506013031 77 142 12.2 19.1 0.00 0.00 0.00 88 1007.7
20260506011532 77 140 12.2 17.4 0.00 0.00 0.00 88 1007.6
20260506010043 77 139 11.3 17.4 0.00 0.00 0.00 88 1007.5
20260506004530 77 168 12.2 18.2 0.00 0.00 0.00 88 1007.3
20260506003030 78 158 10.4 15.6 0.00 0.00 0.00 88 1007.2
20260506001530 78 153 9.6 18.2 0.00 0.00 0.00 88 1007.3
20260506000031 78 149 12.2 16.5 0.00 0.00 0.00 86 1007.3
20260505234539 78 157 13.9 18.2 0.00 0.00 0.00 86 1007.3
20260505233028 78 133 11.3 19.1 0.00 0.00 0.00 87 1007.5
20260505231529 79 140 11.3 18.2 0.00 0.00 0.00 86 1007.5
20260505230025 79 139 12.2 17.4 0.00 0.00 0.00 86 1007.6
20260505224530 79 166 11.3 18.2 0.00 0.00 0.00 86 1007.6
20260505223024 79 138 10.4 20.0 0.00 0.00 0.00 86 1007.7
20260505221523 79 156 12.2 18.2 0.00 0.00 0.00 86 1007.6
20260505220021 80 119 10.4 18.2 0.00 0.00 0.00 85 1007.7
20260505214519 79 152 13.9 19.1 0.00 0.00 0.00 85 1007.8
20260505213020 79 125 12.2 18.2 0.00 0.00 0.00 85 1008.0
20260505211533 79 172 12.2 16.5 0.00 0.00 0.00 85 1008.1
20260505210014 79 167 12.2 16.5 0.00 0.00 0.00 85 1008.5
20260505204513 79 167 11.3 18.2 0.00 0.00 0.00 85 1008.7
20260505203011 80 171 9.6 16.5 0.00 0.00 0.00 84 1008.9
20260505201510 80 186 12.2 19.1 0.00 0.00 0.00 84 1009.0
20260505200010 80 170 12.2 20.9 0.00 0.00 0.00 84 1009.3
20260505194509 80 173 12.2 17.4 0.00 0.00 0.00 83 1009.4
20260505193009 80 196 10.4 17.4 0.00 0.00 0.00 83 1009.5
20260505191508 80 149 10.4 18.2 0.00 0.00 0.00 84 1009.6
20260505190012 80 180 11.3 16.5 0.00 0.00 0.00 84 1009.5
20260505184516 80 184 13.9 18.2 0.00 0.00 0.00 84 1009.4
20260505183007 80 171 12.2 17.4 0.00 0.00 0.00 84 1009.7
20260505181506 80 178 13.0 22.6 0.00 0.00 0.00 83 1009.8
20260505180005 80 188 13.0 20.9 0.00 0.00 0.00 83 1009.9
20260505174504 79 157 13.9 20.9 0.00 0.00 0.00 84 1010.0
20260505173003 79 171 13.9 20.9 0.00 0.00 0.00 84 1010.2
20260505171506 79 169 13.0 17.4 0.00 0.00 0.00 84 1010.2
20260505170004 79 189 14.8 20.9 0.00 0.00 0.00 84 1010.3
20260505164501 79 182 9.6 16.5 0.00 0.00 0.00 85 1010.4
20260505163100 78 185 12.2 14.8 0.00 0.00 0.00 85 1010.4
20260505161559 79 184 9.6 15.6 0.00 0.00 0.00 85 1010.3
20260505153057 78 173 13.0 19.1 0.00 0.00 0.00 86 1009.9
20260505151555 78 183 10.4 17.4 0.00 0.00 0.00 86 1009.9